This demonstration page uses our WeatherBlox Daily Observations layout. Learn more.

Left ArrowRight Arrow

47.50024, -111.30081

Hourly Observations for April 12, 2018

Temp ( °F °C ) Dew Point ( °F °C ) Humidity (%) Winds ( mph kmh ) Pressure ( in mb ) Visibility ( mi km ) Precip ( " mm )
12:53 am 00:53 Clear 38 3.3 28 -2.2 68 68 E 15 24 29.68 1005 10 16 0.00 0.00
1:53 am 01:53 Clear 37 2.8 28 -2.2 70 70 E 13 20 29.64 1004 10 16 0.00 0.00
2:53 am 02:53 Clear 35 1.7 28 -2.2 76 76 ESE 10 17 29.62 1003 10 16 0.00 0.00
3:53 am 03:53 Cloudy 37 2.8 28 -2.2 70 70 E 9 15 29.58 1002 10 16 0.00 0.00
4:53 am 04:53 Cloudy 35 1.7 28 -2.2 76 76 E 9 15 29.57 1002 10 16 0.00 0.00
5:53 am 05:53 Cloudy 34 1.1 28 -2.2 79 79 ENE 8 13 29.57 1001 10 16 0.00 0.00
6:53 am 06:53 Cloudy 33 0.6 28 -2.2 82 82 NNE 5 7 29.55 1001 10 16 0.00 0.00
7:53 am 07:53 Cloudy 34 1.1 29 -1.7 82 82 NNE 9 15 29.56 1001 10 16 0.00 0.00
8:53 am 08:53 Cloudy 36 2.2 30 -1.1 79 79 NE 5 7 29.56 1001 10 16 0.00 0.00
9:53 am 09:53 Cloudy 37 2.8 31 -0.6 79 79 NW 8 13 29.57 1001 10 16 0.00 0.00
10:53 am 10:53 Cloudy 40 4.4 32 0 73 73 NNE 9 15 29.57 1001 10 16 0.00 0.00
11:53 am 11:53 Cloudy 40 4.4 32 0 73 73 Calm 29.57 1001 10 16 0.00 0.00
12:38 pm 12:38 Cloudy 41 5 32 0 70 70 Calm 29.53 1000 10 16 0.00 0.00
12:53 pm 12:53 Cloudy with Light Rain 38 3.3 33 0.6 83 83 WSW 13 20 29.58 1002 10 16 0.00 0.03
1:25 pm 13:25 Cloudy with Light Rain 35 1.7 34 1.1 96 96 WSW 15 24 29.56 1001 7 11 0.00 0.03
1:43 pm 13:43 Cloudy with Light Snow 35 1.7 34 1.1 96 96 WSW 13 20 29.62 1003 5 8 0.01 0.25
1:53 pm 13:53 Cloudy with Light Snow 34 1.1 33 0.6 97 97 WSW 14 22 29.60 1003 3 5 0.01 0.25
2:05 pm 14:05 Cloudy with Light Snow 34 1.1 33 0.6 97 97 WSW 12 19 29.62 1003 3 4 0.01 0.25
2:21 pm 14:21 Cloudy with Light Snow 34 1.1 33 0.6 97 97 WSW 13 20 29.62 1003 2 3 0.02 0.51
2:36 pm 14:36 Cloudy with Light Snow 34 1.1 33 0.6 97 97 WSW 13 20 29.62 1003 2 3 0.04 1.02
2:51 pm 14:51 Cloudy with Light Rain 34 1 34 1 100 100 VRB 6 9 29.62 1003 3 5 0.06 1.52
2:53 pm 14:53 Cloudy with Light Rain 35 1.7 34 1.1 96 96 NNW 7 11 29.62 1003 3 5 0.06 1.52
3:06 pm 15:06 Cloudy with Light Snow 34 1.1 33 0.6 97 97 NNE 9 15 29.65 1004 2 3 0.02 0.51
3:10 pm 15:10 Cloudy with Light Snow 33 0.6 32 0 96 96 N 8 13 29.65 1004 1 1 0.03 0.76
3:25 pm 15:25 Cloudy with Heavy Snow 32 0 32 0 100 100 N 6 9 29.68 1005 0 0 0.07 1.78
3:53 pm 15:53 Mostly Cloudy with Heavy Snow 32 0 32 0 100 100 NW 7 11 29.67 1005 5 8 0.13 3.30
4:53 pm 16:53 Mostly Cloudy with Snow 32 0 31 -0.6 96 96 NW 15 24 29.71 1006 0 0 0.18 4.57
5:53 pm 17:53 Cloudy with Snow 31 -0.6 30 -1.1 96 96 NW 17 28 29.77 1008 5 8 0.11 2.79
6:20 pm 18:20 Cloudy with Snow 30 -1.1 29 -1.7 96 96 NW 15 24 29.83 1010 1 1 0.02 0.51
6:53 pm 18:53 Cloudy with Light Snow 30 -1.1 29 -1.7 96 96 NW 15 24 29.83 1010 1 1 0.04 1.02
7:37 pm 19:37 Cloudy with Snow 29 -1.7 28 -2.2 96 96 NW 15 24 29.85 1011 0 0 0.04 1.02
7:45 pm 19:45 Cloudy with Snow 29 -1.7 28 -2.2 96 96 NW 16 26 29.85 1011 1 1 0.04 1.02
7:53 pm 19:53 Cloudy with Snow 29 -1.7 28 -2.2 96 96 NW 14 22 29.87 1012 1 1 0.06 1.52
8:01 pm 20:01 Cloudy with Light Snow 29 -1.7 28 -2.2 96 96 NW 15 24 29.88 1012 1 1 0.00 0.03
8:53 pm 20:53 Cloudy with Light Snow 28 -2.2 27 -2.8 96 96 NW 9 15 29.92 1013 1 2 0.03 0.76
9:22 pm 21:22 Cloudy with Light Snow 28 -2.2 27 -2.8 96 96 WNW 10 17 29.97 1015 1 2 0.02 0.51
9:25 pm 21:25 Cloudy with Light Snow 28 -2.2 27 -2.8 96 96 WNW 12 19 29.97 1015 1 1 0.02 0.51
9:34 pm 21:34 Mostly Cloudy with Light Snow 28 -2.2 27 -2.8 96 96 WNW 12 19 29.97 1015 1 1 0.03 0.76
9:53 pm 21:53 Mostly Cloudy with Light Snow 28 -2.2 27 -2.8 96 96 WNW 12 19 29.93 1014 1 1 0.05 1.27
10:09 pm 22:09 Cloudy with Light Snow 28 -2.2 27 -2.8 96 96 W 12 19 29.97 1015 1 2 0.01 0.25
10:53 pm 22:53 Cloudy with Light Snow 28 -2.2 27 -2.8 96 96 W 10 17 29.96 1015 2 3 0.02 0.51
11:26 pm 23:26 Cloudy with Light Snow 28 -2.2 27 -2.8 96 96 W 12 19 30.03 1017 2 3 0.01 0.25
11:53 pm 23:53 Cloudy with Light Snow 28 -2.2 27 -2.8 96 96 W 10 17 29.98 1015 2 3 0.02 0.51

Powered by AerisWeather